Location: Basse Occidentale du Courleau
(48.3833°N, 4.8333°W)
Time: 04:33:59
(UTC+00:00)

Cosmos 1953 Rocket - Pass Details

Date: 05 July 2020
Orbit: 605 x 634 km, 82.5° (Epoch: 11 August)

Event Time Altitude Azimuth Distance (km) Brightness Sun altitude
Exits shadow 21:33:10 - 176° (S) 2,205 5.9 -9.3°
Reaches altitude 10° 21:33:48 10° 175° (S) 1,950 5.6 -9.4°
Maximum altitude 21:38:03 61° 95° (E) 692 3.6 -9.8°
Drops below altitude 10° 21:42:20 10° 16° (NNE) 1,968 6.7 -10.3°
Sets 21:44:35 0° 13° (NNE) 2,879 7.6 -10.5°
